This is the latest recevied weather packets stored in our database for station/object EA1GHG-11. If no packets are shown the sender has not sent any weather packets the latest 10 day(s).
| Time | Temp. | Humidity | Pressure | Rain* | Wind** | Luminosity | Snow |
|---|---|---|---|---|---|---|---|
| 1777732010 | 15° C | 100% | 1019 hPa | - | - | - | - |
| 1777730510 | 16.67° C | 100% | 1018.5 hPa | - | - | - | - |
| 1777729010 | 19.44° C | 100% | 1018.4 hPa | - | - | - | - |
| 1777727510 | 21.67° C | 95% | 1018.5 hPa | - | - | - | - |
| 1777726009 | 20.56° C | 100% | 1018.8 hPa | - | - | - | - |
| 1777724509 | 20° C | 100% | 1019 hPa | - | - | - | - |
| 1777723911 | 20.56° C | 100% | 1019 hPa | - | - | - | - |
| 1777722411 | 20° C | 100% | 1019.3 hPa | - | - | - | - |
| 1777720910 | 18.89° C | 100% | 1019.4 hPa | - | - | - | - |
| 1777719410 | 18.89° C | 100% | 1019.5 hPa | - | - | - | - |
| 1777717910 | 18.33° C | 100% | 1019.5 hPa | - | - | - | - |
| 1777716410 | 18.89° C | 100% | 1019.3 hPa | - | - | - | - |
| 1777714910 | 19.44° C | 100% | 1019.5 hPa | - | - | - | - |
| 1777713410 | 18.89° C | 100% | 1019.6 hPa | - | - | - | - |
| 1777711910 | 17.78° C | 100% | 1019.8 hPa | - | - | - | - |
| 1777710410 | 17.22° C | 100% | 1019.8 hPa | - | - | - | - |
| 1777708910 | 17.22° C | 100% | 1020 hPa | - | - | - | - |
| 1777707410 | 15° C | 100% | 1020 hPa | - | - | - | - |
| 1777705909 | 12.78° C | 100% | 1020.1 hPa | - | - | - | - |
| 1777704409 | 11.67° C | 100% | 1020.1 hPa | - | - | - | - |
| 1777702909 | 10° C | 100% | 1020.1 hPa | - | - | - | - |
| 1777702310 | 10° C | 100% | 1019.8 hPa | - | - | - | - |
| 1777700810 | 10° C | 100% | 1020 hPa | - | - | - | - |
| 1777699310 | 10° C | 100% | 1019.8 hPa | - | - | - | - |
| 1777697810 | 10° C | 100% | 1019.9 hPa | - | - | - | - |
* Rain since midnight (hover to see other rain measurements)
** Current wind speed in m/s (hover to see current wind gust speed)